[[[{"header":{"parameterUnit":"kt","parameterCategory":2,"dx":1,"dy":1,"la1":30.253999710083008,"la2":30.299108505249023,"lo1":-89.0895004272461,"lo2":-89.04439544677734,"nx":28,"ny":28,"refTime":"2022-10-09T21:00:00:Z","depth":0,"parameterNumber":1,"parameterNumberName":"U-component_of_WINDS"},"data":[-4.4764,-4.4869,-4.4848,-4.4959,-4.4958,-4.5029,-4.5047,-4.5069,-4.5079,-4.5161,-4.5203,-4.5191,-4.5192,-4.5236,-4.5281,-4.5273,-4.5294,-4.5348,-4.5331,-4.5111,-4.5079,-4.5048,-4.5022,-4.5353,-4.5353,-4.5563,-4.5565,-4.5566,-4.4605,-4.4606,-4.4658,-4.4694,-4.4738,-4.4673,-4.4695,-4.4736,-4.4801,-4.4815,-4.4855,-4.4925,-4.4976,-4.4957,-4.5003,-4.505,-4.5022,-4.5064,-4.5061,-4.5062,-4.4825,-4.4798,-4.5087,-4.5087,-4.5087,-4.5087,-4.5086,-4.5086,-4.4311,-4.4376,-4.4384,-4.444,-4.4452,-4.4475,-4.4532,-4.4516,-4.4565,-4.461,-4.4572,-4.4645,-4.4653,-4.4695,-4.4703,-4.4758,-4.4707,-4.4746,-4.4756,-4.4767,-4.4783,-4.4486,-4.4764,-4.4764,-4.4763,-4.4762,-4.4761,0,-4.409,-4.4067,-4.4115,-4.4157,-4.4196,-4.4226,-4.4249,-4.4283,-4.4225,-4.4268,-4.4328,-4.4359,-4.4418,-4.4472,-4.4508,-4.4507,-4.4444,-4.4434,-4.4461,-4.4481,-4.4495,-4.449,-4.4107,-4.4426,-4.4423,-4.4421,-4.4419,-4.4418,-4.3793,-4.387,-4.3867,-4.3904,-4.391,-4.397,-4.4001,-4.3943,-4.3978,-4.3997,-4.4056,-4.4108,-4.4147,-4.4246,-4.4223,-4.4268,-4.4237,-4.4362,-4.4243,-4.426,-4.424,-4.4237,-4.4245,-4.4386,-4.439,-4.4394,-4.4396,0,-4.3628,-4.359,-4.3702,-4.369,-4.369,-4.3773,-4.3763,-4.3823,-4.3799,-4.3879,-4.3895,-4.3857,-4.3916,-4.3873,-4.3931,-4.3907,-4.4043,-4.4011,-4.404,-4.4032,-4.414,-4.4131,-4.4496,-4.4541,-4.4196,-4.42,-4.4202,0,-4.336,-4.3463,-4.34,-4.3467,-4.3579,-4.3518,-4.3631,-4.3621,-4.3626,-4.3689,-4.3609,-4.3669,-4.3603,-4.3657,-4.3621,-4.3724,-4.3734,-4.3722,-4.3712,-4.3731,-4.3733,-4.3748,-4.3733,-4.3683,-4.3681,-4.368,-4.3678,0,-4.3107,-4.3193,-4.33,-4.3314,-4.3311,-4.3363,-4.3364,-4.3369,-4.34,-4.3431,-4.345,-4.3491,-4.3514,-4.3546,-4.35,-4.3421,-4.3624,-4.3506,-4.3612,-4.3613,-4.366,-4.3658,-4.3991,-4.3676,-4.3675,-4.3675,-4.3674,0,-4.2884,-4.2919,-4.308,-4.3076,-4.3101,-4.3171,-4.3208,-4.3258,-4.3269,-4.3251,-4.3275,-4.3216,-4.3302,-4.3188,-4.3305,-4.3216,-4.3243,-4.3239,-4.3245,-4.3251,-4.3126,-4.3321,-4.3642,-4.3674,-4.3256,-4.3252,-4.3249,0,-4.2606,-4.2758,-4.2707,-4.2861,-4.2925,-4.2831,-4.2908,-4.292,-4.2902,-4.2953,-4.2932,-4.299,-4.2896,-4.2908,-4.2972,-4.2953,-4.3069,-4.2936,-4.3011,-4.3014,-4.3012,-4.3306,-4.3365,-4.3576,-4.3204,-4.3209,-4.3212,0,-4.2385,-4.238,-4.2412,-4.2424,-4.2431,-4.2483,-4.2572,-4.2616,-4.2653,-4.2675,-4.2747,-4.2827,-4.276,-4.2781,-4.2736,-4.2805,-4.2988,-4.2723,-4.2722,-4.2774,-4.3177,-4.3233,-4.3269,-4.2944,-4.2949,-4.2953,-4.3176,0,-4.206,-4.213,-4.2212,-4.2243,-4.2276,-4.237,-4.2323,-4.2364,-4.2319,-4.2297,-4.2402,-4.2399,-4.2444,-4.2472,-4.2427,-4.2598,-4.2563,-4.249,-4.2377,-4.257,-4.2642,-4.2671,-4.2273,-4.2269,-4.2266,-4.2264,0,0,-4.1803,-4.1903,-4.1843,-4.1927,-4.1951,-4.1851,-4.1956,-4.1968,-4.1995,-4.2014,-4.195,-4.2064,-4.2064,-4.2197,-4.2253,-4.227,-4.2297,-4.2231,-4.2478,-4.2502,-4.2524,-4.2602,-4.2634,-4.2258,-4.2257,-4.2256,-4.2255,0,-4.1675,-4.1679,-4.1783,-4.1793,-4.1805,-4.1777,-4.1802,-4.1796,-4.1787,-4.1889,-4.1805,-4.1862,-4.1953,-4.1966,-4.1984,-4.2214,-4.2147,-4.223,-4.2371,-4.2449,-4.2477,-4.2502,-4.2585,-4.2615,-4.2248,-4.2248,-4.2249,0,-4.145,-4.1447,-4.1491,-4.1542,-4.1549,-4.1617,-4.1487,-4.1564,-4.1613,-4.1499,-4.1602,-4.1594,-4.1606,-4.1736,-4.1793,-4.1736,-4.2014,-4.1917,-4.1935,-4.194,-4.2014,-4.2048,-4.2078,-4.1681,-4.1679,-4.1677,0,0,-4.1346,-4.1411,-4.1388,-4.1511,-4.1522,-4.1481,-4.1512,-4.1469,-4.1482,-4.1488,-4.1476,-4.1491,-4.1544,-4.158,-4.1626,-4.1776,-4.1774,-4.1849,-4.1876,-4.1898,-4.1916,-4.1995,-4.2029,-4.1671,-4.1671,-4.167,0,0,-4.1296,-4.1274,-4.1226,-4.1364,-4.1379,-4.1364,-4.1441,-4.1382,-4.1419,-4.1403,-4.1334,-4.1335,-4.1455,-4.1451,-4.1367,-4.1585,-4.1474,-4.1493,-4.1584,-4.1617,-4.1643,-4.1642,-4.1233,0,0,0,0,0,-4.1141,-4.1277,-4.1233,-4.1249,-4.1313,-4.1389,-4.1396,-4.1343,-4.1265,-4.1328,-4.1309,-4.1235,-4.1391,-4.1315,-4.1332,-4.1427,-4.1584,-4.16,-4.1614,-4.1766,-4.1801,-4.1831,0,0,0,0,0,0,-4.1147,-4.1167,-4.1229,-4.1221,-4.1235,-4.1383,-4.1241,-4.123,-4.1257,-4.1242,-4.1241,-4.1234,-4.119,-4.1303,-4.1319,-4.141,-4.1227,-4.159,-4.1603,-4.1615,-4.1778,-4.1807,-4.1831,0,0,0,0,0,-4.1151,-4.1167,-4.1283,-4.1219,-4.1231,-4.1192,-4.1235,-4.1225,-4.1245,-4.1216,-4.1207,-4.1202,-4.1194,-4.1203,-4.1312,-4.1404,-4.1216,-4.1222,-4.1599,-4.1609,-4.1618,-4.1792,0,0,0,0,0,0,-4.1154,-4.1158,-4.1284,-4.1285,-4.1163,-4.1183,-4.1184,-4.1221,-4.1216,-4.1209,-4.1173,-4.1161,-4.1199,-4.1205,-4.1213,-4.1405,-4.1207,-4.1213,-4.1217,-4.1607,-4.1615,-4.1622,0,0,0,0,0,0,-4.1149,-4.116,-4.1285,-4.1218,-4.1211,-4.1174,-4.1176,-4.1259,-4.1217,-4.1173,-4.1163,-4.1168,-4.1186,-4.1207,-4.1212,-4.1346,-4.12,-4.1206,-4.121,-4.1212,-4.1613,-4.1619,0,0,0,0,0,0,-4.1152,-4.1162,-4.1217,-4.1212,-4.1206,-4.1219,-4.1247,-4.1315,-4.116,-4.1175,-4.1145,-4.1138,-4.1191,-4.1195,-4.1213,-4.1344,-4.1345,-4.12,-4.1204,-4.1207,-4.1209,0,0,0,0,0,0,0,-4.1155,-4.1105,-4.1275,-4.1207,-4.1201,-4.13,-4.13,-4.1301,-4.1159,-4.1153,-4.1147,-4.1141,-4.1166,-4.1172,-4.1179,-4.1343,0,0,-4.1199,-4.1202,0,0,0,0,0,0,0,0,-4.1099,-4.1103,-4.1275,-4.1275,-4.1275,-4.13,-4.13,-4.1301,-4.1158,-4.1153,-4.1148,-4.1143,-4.1168,-4.1173,-4.1178,0,0,0,0,0,0,0,0,0,0,0,0,0,0,0,-4.1275,-4.1275,0,-4.13,-4.13,-4.1301,-4.1157,-4.1153,-4.1149,-4.1145,-4.1169,-4.1173,-4.1178,0,0,0,0,0,0,0,0,0,0,0,0,0,0,0,0,0,0,0,0,0,0,0,0,0,0,0,0,0,0,0,0,0,0,0,0,0,0,0,0,0,0,0,0,0,0,0,0,0,0,0,0,0,0,0,0,0,0,0,0,0,0,0,0,0,0,0,0,0]}],[{"header":{"parameterUnit":"kt","parameterCategory":2,"dx":1,"dy":1,"la1":30.253999710083008,"la2":30.299108505249023,"lo1":-89.0895004272461,"lo2":-89.04439544677734,"nx":28,"ny":28,"refTime":"2022-10-09T21:00:00:Z","depth":0,"parameterNumber":2,"parameterNumberName":"V-component_of_WINDS"},"data":[-8.3036,-8.3206,-8.3218,-8.3415,-8.3457,-8.3592,-8.3642,-8.3708,-8.3761,-8.3919,-8.401,-8.4033,-8.4086,-8.4193,-8.4289,-8.4295,-8.4335,-8.439,-8.4388,-8.4141,-8.4107,-8.4074,-8.4036,-8.4399,-8.4399,-8.4643,-8.4645,-8.4647,-8.2857,-8.2903,-8.3011,-8.3121,-8.3212,-8.3167,-8.3249,-8.3327,-8.3446,-8.3513,-8.3603,-8.374,-8.3847,-8.3881,-8.3984,-8.4059,-8.404,-8.4086,-8.408,-8.4088,-8.3825,-8.3785,-8.4099,-8.4099,-8.4099,-8.4099,-8.4099,-8.4099,-8.2535,-8.2636,-8.2709,-8.2825,-8.2883,-8.2955,-8.3052,-8.3079,-8.318,-8.3293,-8.328,-8.3414,-8.3477,-8.3603,-8.3645,-8.3746,-8.3695,-8.3746,-8.3758,-8.3771,-8.3786,-8.3434,-8.3763,-8.3762,-8.3761,-8.3761,-8.376,0,-8.2301,-8.2303,-8.2406,-8.2513,-8.2597,-8.2679,-8.2754,-8.2813,-8.2812,-8.2895,-8.3015,-8.3084,-8.3219,-8.3329,-8.3425,-8.3458,-8.3413,-8.3408,-8.3443,-8.3452,-8.3449,-8.3453,-8.3023,-8.3398,-8.3395,-8.3393,-8.3391,-8.339,-8.1976,-8.2092,-8.2171,-8.2242,-8.2286,-8.2399,-8.2467,-8.2458,-8.253,-8.2618,-8.2704,-8.2816,-8.2904,-8.3089,-8.3112,-8.3211,-8.3189,-8.3332,-8.3203,-8.3208,-8.3191,-8.3185,-8.3196,-8.3357,-8.3361,-8.3364,-8.3367,0,-8.1791,-8.1806,-8.1988,-8.2053,-8.2072,-8.2193,-8.2246,-8.2344,-8.2357,-8.2492,-8.2523,-8.2542,-8.2657,-8.2657,-8.2786,-8.2782,-8.2975,-8.2951,-8.2954,-8.2949,-8.3077,-8.3066,-8.3493,-8.3548,-8.3172,-8.3176,-8.3179,0,-8.1519,-8.167,-8.1682,-8.1787,-8.1954,-8.1942,-8.2106,-8.2134,-8.219,-8.2296,-8.2247,-8.2347,-8.233,-8.2429,-8.2423,-8.2581,-8.2605,-8.261,-8.2607,-8.2615,-8.2615,-8.265,-8.2632,-8.2594,-8.2592,-8.259,-8.2588,0,-8.1229,-8.1411,-8.1582,-8.1625,-8.1707,-8.1786,-8.1823,-8.1884,-8.1949,-8.2033,-8.2074,-8.2171,-8.2224,-8.2299,-8.2291,-8.2203,-8.2483,-8.2361,-8.2489,-8.2489,-8.2549,-8.2546,-8.2925,-8.2585,-8.2585,-8.2584,-8.2583,0,-8.1009,-8.1101,-8.1345,-8.1412,-8.1459,-8.157,-8.1667,-8.1762,-8.1829,-8.1833,-8.1898,-8.1864,-8.2002,-8.1881,-8.207,-8.1959,-8.2013,-8.2031,-8.204,-8.2051,-8.1916,-8.213,-8.2492,-8.253,-8.2063,-8.2059,-8.2055,0,-8.0674,-8.0924,-8.0915,-8.1146,-8.1261,-8.12,-8.1321,-8.1383,-8.1399,-8.1496,-8.1511,-8.162,-8.153,-8.1563,-8.1657,-8.1676,-8.182,-8.1656,-8.1791,-8.1796,-8.1777,-8.211,-8.2164,-8.2413,-8.1999,-8.2005,-8.2009,0,-8.0415,-8.0516,-8.0558,-8.0606,-8.0688,-8.0782,-8.0921,-8.1028,-8.1094,-8.1166,-8.1281,-8.1433,-8.1371,-8.1427,-8.1407,-8.1505,-8.1722,-8.1424,-8.1425,-8.1478,-8.1971,-8.2022,-8.2064,-8.1687,-8.1694,-8.1699,-8.1965,0,-8.0082,-8.0207,-8.0321,-8.0428,-8.0502,-8.0645,-8.0648,-8.0724,-8.0701,-8.0714,-8.0881,-8.0928,-8.1031,-8.1078,-8.1054,-8.1277,-8.1239,-8.1171,-8.1052,-8.1271,-8.1358,-8.1394,-8.0922,-8.0918,-8.0915,-8.0913,0,0,-7.9757,-7.9937,-7.9921,-8.0058,-8.0119,-8.0052,-8.0205,-8.0255,-8.0357,-8.0399,-8.0334,-8.0554,-8.0594,-8.0796,-8.0864,-8.0906,-8.0945,-8.0868,-8.1166,-8.1195,-8.1221,-8.1315,-8.1352,-8.0907,-8.0906,-8.0905,-8.0904,0,-7.9636,-7.9686,-7.9839,-7.9892,-7.9969,-7.9976,-8.0013,-8.0076,-8.0091,-8.0255,-8.0193,-8.0293,-8.0468,-8.0519,-8.0568,-8.0845,-8.079,-8.0876,-8.1026,-8.1137,-8.1169,-8.1197,-8.1296,-8.1332,-8.0897,-8.0898,-8.0898,0,-7.9381,-7.9431,-7.9505,-7.9642,-7.969,-7.9808,-7.9686,-7.9815,-7.9901,-7.9815,-7.9979,-8.0004,-8.007,-8.0262,-8.0347,-8.0288,-8.065,-8.0534,-8.0553,-8.0562,-8.0669,-8.0707,-8.0742,-8.0287,-8.0285,-8.0283,0,0,-7.9275,-7.9392,-7.9439,-7.9615,-7.9651,-7.9663,-7.9725,-7.9707,-7.9772,-7.9797,-7.9828,-7.989,-7.9991,-8.0058,-8.0153,-8.0363,-8.0374,-8.0459,-8.0488,-8.0512,-8.0533,-8.0646,-8.0685,-8.0275,-8.0275,-8.0274,0,0,-7.9223,-7.9287,-7.9253,-7.9458,-7.9524,-7.9578,-7.9684,-7.9642,-7.9728,-7.9711,-7.9683,-7.9698,-7.9876,-7.9902,-7.9796,-8.011,-7.9992,-8.0017,-8.0087,-8.0123,-8.0151,-8.0141,-7.9673,0,0,0,0,0,-7.9101,-7.928,-7.9248,-7.9283,-7.9452,-7.9597,-7.9618,-7.9601,-7.952,-7.9604,-7.9623,-7.9561,-7.9839,-7.9745,-7.9778,-7.9895,-8.0172,-8.019,-8.0208,-8.0346,-8.0384,-8.0416,0,0,0,0,0,0,-7.9114,-7.9157,-7.9243,-7.9306,-7.9344,-7.959,-7.9448,-7.9448,-7.951,-7.9496,-7.9559,-7.9563,-7.9548,-7.9727,-7.9757,-7.9869,-7.9663,-8.0179,-8.0195,-8.0209,-8.0359,-8.039,-8.0417,0,0,0,0,0,-7.9125,-7.916,-7.9436,-7.9303,-7.9336,-7.9357,-7.9441,-7.944,-7.9487,-7.9516,-7.9518,-7.947,-7.9552,-7.9575,-7.9745,-7.9856,-7.9643,-7.9654,-8.0189,-8.0202,-8.0212,-8.0375,0,0,0,0,0,0,-7.9133,-7.9158,-7.9442,-7.9452,-7.9235,-7.9343,-7.936,-7.9433,-7.9502,-7.9506,-7.9424,-7.9413,-7.9557,-7.9574,-7.9593,-7.9853,-7.9626,-7.9637,-7.9644,-8.0199,-8.0208,-8.0217,0,0,0,0,0,0,-7.9139,-7.9167,-7.9447,-7.9362,-7.9361,-7.933,-7.9345,-7.9485,-7.9504,-7.9406,-7.9398,-7.9418,-7.9527,-7.9574,-7.9588,-7.9807,-7.9613,-7.9624,-7.9631,-7.9636,-8.0206,-8.0214,0,0,0,0,0,0,-7.915,-7.9174,-7.9359,-7.9359,-7.9358,-7.9459,-7.9452,-7.9625,-7.9436,-7.9404,-7.9418,-7.941,-7.9529,-7.9543,-7.9586,-7.9799,-7.9805,-7.9613,-7.9621,-7.9626,-7.9629,0,0,0,0,0,0,0,-7.9159,-7.9009,-7.9388,-7.9356,-7.9355,-7.9537,-7.9539,-7.9542,-7.9434,-7.9427,-7.942,-7.9413,-7.9551,-7.9563,-7.9575,-7.9792,0,0,-7.9612,-7.9617,0,0,0,0,0,0,0,0,-7.8999,-7.9006,-7.9389,-7.9391,-7.9393,-7.9537,-7.9539,-7.9541,-7.9433,-7.9427,-7.9421,-7.9416,-7.9554,-7.9564,-7.9573,0,0,0,0,0,0,0,0,0,0,0,0,0,0,0,-7.9389,-7.9391,0,-7.9537,-7.9539,-7.9541,-7.9432,-7.9427,-7.9422,-7.9418,-7.9557,-7.9565,-7.9573,0,0,0,0,0,0,0,0,0,0,0,0,0,0,0,0,0,0,0,0,0,0,0,0,0,0,0,0,0,0,0,0,0,0,0,0,0,0,0,0,0,0,0,0,0,0,0,0,0,0,0,0,0,0,0,0,0,0,0,0,0,0,0,0,0,0,0,0,0]}]]]